Wind_Speed
45 38 35 35 33 32 34 35 35 32 32 29 29 29 32 37 40 42 44 46 48 55 53 60 55 69 71
45 39 33 32 35 35 32 31 32 32 32 29 27 28 37 40 41 43 41 43 49 53 52 54 51 61 61
44 41 36 33 35 33 31 30 29 30 30 28 24 34 36 42 43 44 40 39 41 50 53 54 54 64 62
44 43 37 34 35 36 32 31 28 27 27 23 28 29 31 38 43 47 49 47 46 50 52 51 54 61 73
45 43 41 37 38 36 36 34 28 29 25 22 31 32 27 31 32 29 34 39 43 46 48 50 60 54 70
46 45 43 40 39 38 38 37 32 29 27 22 34 35 29 31 30 29 33 37 40 43 44 53 62 68 92
42 41 41 39 39 37 37 39 35 33 33 32 37 39 29 26 33 33 31 37 39 42 48 49 61 73 35
39 39 37 37 38 41 40 41 32 30 32 40 40 39 31 28 31 32 31 37 42 42 42 53 41 37 49
37 35 33 33 35 39 39 39 34 26 29 39 43 44 36 17 28 31 36 39 42 39 36 40 50 35 42
30 29 27 30 30 34 36 38 38 31 32 41 46 47 33 12 27 36 38 38 40 38 33 45 36 32 59
29 24 23 26 28 28 30 33 35 31 36 46 48 40 33 14 28 38 42 40 38 38 33 47 38 36 56
26 21 23 23 25 25 26 26 28 31 37 42 47 41 35 4 17 42 45 38 38 42 38 36 37 33 39
22 19 21 23 23 25 24 25 23 27 33 37 42 35 28 11 23 39 38 38 41 44 44 41 40 41 40
19 17 19 20 21 23 23 23 20 24 30 34 36 26 16 23 31 34 39 40 37 45 41 41 35 38 40
18 16 17 19 19 21 21 21 22 30 31 33 30 19 8 32 32 39 39 38 46 46 47 47 36 45 50
16 16 16 17 17 17 19 19 22 28 31 33 29 20 5 33 34 36 37 40 42 44 33 48 44 60 55
14 14 15 16 17 16 16 15 20 26 30 30 26 18 4 39 39 37 39 45 45 45 39 27 48 62 75
Wind_Direction
326 324 317 307 304 300 301 300 299 295 291 287 281 276 272 268 259 249 243 242 238 231 238 232 234 224 213
321 324 317 311 308 309 309 304 298 296 294 287 274 277 279 273 265 251 242 244 238 233 233 229 228 223 216
316 323 319 315 310 312 309 309 304 297 290 284 270 292 283 270 262 255 244 240 230 229 228 222 224 219 214
317 319 321 321 317 318 311 312 306 298 289 272 285 304 292 278 263 252 249 237 234 228 221 219 216 214 207
315 316 323 322 319 320 316 313 313 317 297 286 306 313 297 272 260 249 231 224 224 223 216 218 209 208 195
313 312 315 320 318 317 316 317 313 330 309 301 312 315 302 275 254 239 233 216 214 212 214 212 207 200 200
307 306 307 315 314 314 320 319 327 330 316 311 314 315 304 271 256 235 217 206 203 202 210 222 190 196 211
302 302 306 313 316 316 318 319 330 328 323 315 318 321 315 278 242 224 206 201 197 202 215 205 218 197 178
301 299 303 305 310 311 315 320 328 330 328 317 323 328 332 271 227 207 190 198 200 201 205 210 199 176 178
296 293 296 299 305 307 315 320 325 326 334 324 329 333 336 226 212 202 188 193 195 198 195 187 182 162 179
300 295 292 300 307 308 314 317 322 325 332 327 326 331 330 274 220 193 184 188 198 197 192 190 176 173 174
299 296 296 306 309 309 314 316 319 323 330 322 324 330 337 339 183 184 180 184 191 187 184 183 179 158 172
299 300 302 314 314 314 318 318 321 322 324 324 325 332 337 136 162 171 175 187 189 183 187 191 189 179 176
301 301 305 315 316 316 320 321 319 324 330 331 331 334 347 148 164 170 177 175 182 185 188 191 183 193 191
302 303 308 317 317 319 323 326 331 335 338 336 341 357 31 154 162 161 163 181 187 189 189 192 189 196 190
300 304 312 319 317 324 328 328 338 340 339 345 357 12 63 163 168 169 173 175 181 188 192 186 183 187 188
299 301 313 321 317 329 330 331 344 344 347 355 357 11 96 169 174 174 173 179 182 186 185 188 189 179 178
Height
2894 2888 2880 2872 2867 2862 2855 2850 2845 2841 2836 2833 2830 2828 2826 2825 2825 2826 2829 2833 2838 2845 2851 2857 2868 2877 2886
2888 2881 2875 2867 2858 2853 2849 2844 2838 2833 2828 2825 2822 2820 2817 2814 2813 2814 2816 2820 2825 2830 2836 2843 2853 2864 2876
2880 2875 2867 2860 2852 2847 2842 2836 2831 2825 2820 2817 2815 2811 2804 2800 2800 2801 2804 2807 2812 2817 2824 2832 2842 2856 2867
2873 2867 2861 2854 2846 2838 2833 2827 2823 2818 2812 2808 2806 2799 2791 2784 2782 2783 2788 2793 2798 2804 2812 2821 2832 2842 2855
2866 2860 2853 2847 2839 2833 2824 2818 2816 2809 2803 2801 2794 2787 2780 2772 2768 2769 2772 2779 2784 2793 2803 2811 2823 2829 2844
2860 2854 2847 2841 2835 2827 2818 2811 2804 2805 2794 2792 2783 2776 2769 2762 2761 2761 2763 2768 2776 2785 2792 2801 2812 2822 2835
2854 2850 2842 2837 2830 2821 2814 2808 2802 2797 2786 2780 2775 2766 2758 2753 2750 2752 2756 2763 2772 2781 2790 2793 2804 2820 2827
2850 2843 2837 2832 2824 2816 2809 2801 2799 2793 2783 2770 2766 2757 2749 2742 2740 2747 2753 2760 2770 2781 2787 2790 2799 2812 2818
2844 2837 2833 2827 2821 2812 2806 2798 2792 2787 2781 2767 2759 2747 2739 2730 2733 2743 2752 2756 2767 2780 2786 2794 2800 2808 2817
2837 2831 2827 2822 2818 2810 2803 2795 2788 2781 2777 2765 2754 2743 2733 2728 2729 2735 2746 2754 2763 2776 2786 2795 2800 2810 2821
2827 2824 2821 2817 2812 2807 2803 2795 2787 2780 2773 2761 2751 2743 2734 2725 2724 2737 2746 2757 2764 2773 2785 2797 2803 2817 2824
2820 2819 2815 2812 2809 2804 2800 2796 2789 2779 2771 2761 2748 2738 2728 2722 2726 2734 2750 2761 2770 2778 2786 2795 2803 2813 2827
2815 2814 2811 2808 2804 2800 2797 2791 2786 2779 2772 2760 2747 2737 2728 2721 2730 2739 2746 2760 2770 2781 2789 2799 2807 2817 2830
2813 2811 2808 2806 2802 2797 2793 2788 2784 2779 2769 2757 2745 2735 2730 2731 2736 2743 2754 2763 2772 2781 2793 2801 2811 2823 2834
2811 2809 2807 2804 2800 2796 2793 2788 2781 2772 2765 2755 2744 2733 2729 2737 2743 2751 2756 2765 2776 2786 2794 2802 2814 2822 2835
2809 2806 2805 2802 2798 2796 2792 2787 2782 2775 2766 2755 2743 2737 2737 2744 2750 2755 2765 2773 2780 2789 2796 2804 2814 2821 2834
2808 2806 2804 2802 2798 2796 2793 2789 2784 2777 2767 2757 2746 2743 2745 2748 2756 2762 2772 2779 2786 2793 2801 2808 2819 2831 2840